Location: Casilda
(33.0440°S, 61.1680°W)
Time: 01:27:41
(UTC-03:00)

ISS - Pass Details

Date: 06 May 2021
Orbit: 417 x 422 km, 51.6° (Epoch: 12 May)

Event Time Altitude Azimuth Distance (km) Brightness Sun altitude
Rises 20:26:45 0° 227° (SW) 2,390 0.7 -26.8°
Reaches altitude 10° 20:28:52 10° 228° (SW) 1,518 -0.4 -27.2°
Enters shadow 20:29:43 17° 229° (SW) 1,180 -1.0 -27.4°
